Wind_Speed
21 18 17 18 18 19 21 21 21 21 22 21 22 21 21 20 18 17 16 15 13 11 9 7 4 2 1 1 2 3 3 3 3 3 2 2 2 1 2 2 2 2 5
15 19 17 17 17 18 20 20 20 20 20 20 19 19 18 17 16 15 13 12 10 8 6 4 2 2 2 2 2 3 4 4 6 5 5 5 5 4 4 4 4 4 5
14 18 17 17 17 18 18 19 20 19 18 18 17 16 15 14 12 11 10 9 7 6 4 3 2 2 2 3 3 4 5 4 6 5 6 5 6 9 5 4 6 5 5
15 16 16 16 16 17 17 17 17 17 16 14 13 12 11 10 8 7 6 5 5 4 3 3 3 3 3 2 2 2 2 3 5 5 4 1 5 6 5 6 6 4 4
17 15 15 16 16 16 16 15 15 14 13 12 10 9 8 7 7 6 5 3 3 2 1 1 2 3 4 4 3 2 3 4 5 5 3 2 6 8 7 8 7 4 2
16 15 14 14 15 15 15 14 13 13 12 10 9 8 7 6 5 3 3 3 2 1 1 2 3 4 4 4 4 3 2 3 3 5 3 2 5 4 1 6 5 5 3
16 16 15 14 14 14 15 14 12 11 10 9 9 8 7 5 4 3 2 2 1 1 2 2 3 3 3 3 4 3 3 3 2 2 7 3 4 4 3 6 4 6 4
13 15 14 13 13 13 12 12 11 10 9 8 7 7 7 6 4 3 2 1 2 2 3 3 3 3 2 2 2 3 3 4 4 4 5 3 0 2 1 4 5 5 3
17 13 12 11 11 10 10 9 9 8 7 6 6 5 5 4 4 3 2 1 2 2 2 2 3 3 3 3 2 2 3 4 4 4 4 4 3 2 1 1 3 6 8
15 13 11 11 10 9 9 8 7 7 6 5 4 4 3 2 3 3 2 0 1 2 1 2 6 7 6 5 4 3 2 3 4 4 3 2 3 2 3 3 4 5 6
15 12 11 10 10 10 9 8 7 6 5 5 4 3 3 2 3 1 1 3 2 3 6 9 8 5 5 4 3 4 3 2 1 0 1 3 6 7 6 6 7 7 6
14 12 11 10 9 9 8 8 7 6 5 4 4 3 3 3 2 1 4 3 3 3 6 14 7 6 6 4 3 3 3 3 5 5 6 7 8 8 8 9 8 7 6
13 15 12 11 10 10 8 8 7 6 5 5 4 4 3 3 2 5 7 3 1 4 5 9 9 9 9 7 6 4 6 5 4 2 3 1 6 5 8 11 10 8 7
9 13 14 12 10 9 10 9 8 7 6 6 5 5 5 3 4 5 3 2 5 2 5 5 6 11 16 7 7 9 7 2 4 7 3 2 3 7 6 7 8 6 6
7 4 8 11 10 8 9 8 6 7 9 9 6 5 3 3 3 6 7 5 4 4 5 3 5 7 11 10 17 14 11 6 8 11 8 10 12 9 10 7 6 5 3
9 7 4 4 4 4 4 3 6 6 6 5 6 4 4 4 6 5 7 6 8 8 3 6 6 8 11 11 12 8 11 7 12 15 21 3 4 1 10 9 8 7 2
8 9 8 3 5 6 5 5 6 7 9 7 9 4 3 5 7 7 6 5 5 5 8 8 10 9 12 10 12 6 1 8 10 13 11 3 8 14 8 9 9 8 6
5 6 5 5 5 9 6 8 7 9 9 9 9 10 7 6 8 7 8 8 8 6 3 10 10 11 11 12 9 10 10 4 13 16 18 7 5 8 1 11 9 9 6
5 2 2 2 2 7 6 6 7 9 9 10 11 11 9 7 8 8 7 9 10 13 7 9 10 10 9 15 15 13 12 10 10 11 17 21 18 10 8 8 6 8 9
6 2 1 7 8 3 5 3 6 7 8 10 10 11 13 8 7 9 9 10 10 11 11 9 5 8 10 12 9 10 16 11 12 11 14 16 17 16 18 3 5 7 12
5 5 3 4 5 6 3 1 1 3 4 5 8 9 10 9 8 7 8 9 10 10 12 13 8 9 11 13 13 10 12 15 14 16 13 14 22 15 6 4 3 7 10
6 6 4 3 3 4 5 3 2 1 1 3 4 5 7 9 10 10 9 10 12 11 12 11 11 11 12 13 12 10 9 12 11 14 14 15 7 14 10 3 4 8 5
8 7 7 6 4 3 4 4 3 2 2 2 2 4 4 7 8 10 12 11 11 14 15 15 15 12 12 10 12 11 11 11 12 11 12 7 8 9 9 7 3 4 4
13 10 12 10 8 6 5 4 4 3 1 2 3 4 5 6 7 11 13 15 15 14 15 15 15 15 14 10 13 13 14 13 14 8 8 5 1 8 7 9 12 5 7
9 13 13 11 11 11 9 7 6 4 3 4 3 6 9 9 9 10 11 12 14 15 16 17 17 18 16 15 15 14 16 15 14 15 12 10 8 7 10 8 17 12 14
19 18 14 14 17 15 14 12 9 10 9 8 9 8 11 11 14 16 17 18 19 18 15 17 18 18 19 18 18 16 15 18 17 18 17 14 15 13 14 21 14 16 13
Wind_Direction
143 147 151 151 145 141 139 141 141 143 141 140 139 137 137 138 141 143 145 150 154 155 153 152 148 166 207 259 282 288 275 273 266 252 247 252 257 234 175 171 148 151 174
146 147 153 152 146 142 140 140 141 141 140 141 142 140 141 143 146 147 150 154 158 160 162 166 181 193 216 254 277 274 273 277 272 267 263 263 256 240 217 161 176 181 185
155 150 154 152 150 146 145 143 141 139 139 140 142 142 143 144 149 152 157 163 171 177 184 206 225 239 253 272 281 275 269 268 269 287 273 266 240 242 240 180 165 191 204
157 147 151 151 153 152 150 148 145 142 142 142 144 147 147 148 153 161 164 174 182 191 203 234 268 290 305 319 314 297 267 255 272 278 300 7 62 218 206 203 161 175 218
154 149 150 152 154 156 154 153 149 147 147 150 153 157 160 164 168 173 174 185 201 223 246 301 311 315 320 326 314 293 279 278 289 316 319 314 115 162 184 214 161 172 198
149 150 153 156 156 156 154 152 152 150 153 157 160 163 166 173 176 178 182 187 191 258 4 337 327 324 328 333 334 329 310 294 307 297 68 232 131 133 104 211 179 174 170
154 154 158 159 161 159 157 155 153 152 155 160 163 163 166 167 163 171 193 221 248 333 347 325 328 321 324 333 336 333 342 331 332 269 290 250 122 97 103 157 168 159 152
161 158 159 161 162 159 156 155 151 151 153 158 163 164 162 164 172 187 219 274 328 342 346 349 344 339 333 1 344 329 330 330 331 322 303 327 161 56 172 213 212 220 222
152 156 157 160 160 159 155 152 147 143 148 153 160 165 169 173 188 188 230 291 324 321 327 338 340 320 312 300 287 298 312 312 299 295 316 279 143 113 265 279 276 262 257
148 156 163 163 162 161 156 151 147 143 144 147 154 165 175 193 211 220 190 103 322 262 245 353 335 301 290 275 269 258 264 287 292 284 335 46 53 43 353 333 311 301 282
158 170 171 172 168 169 166 162 158 156 155 158 167 168 177 207 247 247 218 145 228 294 343 314 302 275 254 260 261 279 281 329 318 77 86 69 53 34 9 356 342 326 306
158 171 174 176 173 174 174 172 172 168 171 175 185 192 202 201 210 263 222 203 269 310 333 333 297 286 249 231 241 298 280 109 101 86 62 46 42 23 357 354 344 333 323
156 173 179 182 182 181 183 182 181 179 188 193 198 204 220 243 239 205 202 206 353 335 327 351 335 316 282 238 175 245 238 111 152 219 158 46 353 355 347 337 331 337 325
170 159 173 179 188 188 185 192 187 195 203 201 202 216 227 254 254 278 292 241 239 231 308 339 11 263 297 259 274 264 283 300 203 194 270 302 286 306 318 306 311 316 322
211 203 171 164 186 197 187 198 201 207 209 204 209 231 243 267 301 315 306 303 295 291 339 349 348 305 328 343 331 322 293 288 265 263 225 251 237 310 285 283 293 290 306
210 236 258 141 196 221 230 228 231 241 215 216 195 224 257 281 286 283 295 321 325 302 299 302 320 310 331 337 346 348 284 250 251 254 241 143 191 205 254 237 226 221 206
209 228 258 252 211 251 252 256 254 271 290 292 288 267 248 271 275 286 298 305 280 286 277 322 338 321 320 324 332 347 9 297 284 278 265 238 272 234 298 252 229 211 173
213 233 270 267 227 247 236 252 246 266 270 278 276 289 296 284 285 291 298 291 293 296 287 325 311 300 315 326 323 314 323 321 306 285 292 257 268 259 270 266 217 214 202
103 203 297 12 143 245 266 257 265 261 273 282 291 297 306 300 296 301 300 297 295 294 314 280 298 315 299 304 311 321 319 317 295 288 306 298 277 265 240 230 266 231 212
110 115 358 63 75 162 268 261 256 265 269 277 287 292 303 311 301 299 300 298 304 305 300 299 290 308 319 308 301 321 316 298 312 302 342 318 304 317 223 217 274 261 240
151 127 110 88 94 99 149 304 303 288 281 277 284 290 301 307 305 292 289 290 295 308 308 323 340 317 323 303 314 319 290 302 299 311 333 326 284 307 303 307 301 297 248
188 171 166 155 133 130 130 148 126 165 276 304 293 294 300 321 333 337 329 319 317 311 308 315 321 321 315 301 308 320 315 300 307 315 339 344 7 301 311 275 296 313 234
221 199 190 198 205 188 167 163 165 131 109 87 9 360 340 326 329 330 331 337 328 321 321 319 316 316 302 300 300 314 320 323 311 320 334 351 274 308 313 327 30 300 254
256 233 211 213 210 222 210 187 184 171 92 337 352 346 347 336 326 325 323 324 327 322 323 318 312 313 309 297 297 310 314 319 324 326 321 346 84 335 281 297 323 288 259
291 269 252 232 223 221 230 209 219 202 207 244 281 310 314 321 329 336 338 336 326 322 323 316 315 313 313 303 295 293 303 310 313 315 317 326 330 311 293 328 319 317 320
274 279 285 283 258 236 231 235 217 209 216 226 244 269 283 296 316 318 319 321 324 323 322 312 310 310 309 306 299 294 291 296 306 305 304 314 316 320 308 319 320 299 290
Height
3182 3185 3188 3190 3192 3193 3195 3197 3199 3201 3203 3204 3206 3207 3208 3209 3211 3212 3213 3214 3215 3216 3217 3218 3218 3218 3219 3219 3219 3219 3219 3219 3219 3219 3220 3221 3221 3222 3221 3222 3223 3223 3223
3184 3186 3189 3191 3193 3194 3197 3199 3201 3203 3204 3206 3207 3209 3210 3211 3212 3213 3214 3215 3216 3217 3217 3218 3218 3218 3219 3219 3220 3219 3218 3219 3218 3218 3219 3219 3220 3220 3220 3221 3222 3222 3222
3186 3187 3189 3192 3194 3196 3198 3200 3202 3204 3206 3207 3209 3210 3211 3212 3213 3214 3214 3216 3217 3217 3218 3218 3218 3219 3219 3219 3219 3219 3218 3218 3216 3217 3217 3217 3217 3218 3219 3219 3220 3221 3222
3186 3188 3191 3193 3195 3197 3200 3202 3203 3204 3206 3208 3209 3210 3212 3212 3214 3214 3215 3216 3217 3218 3219 3219 3219 3219 3219 3219 3219 3219 3218 3217 3215 3215 3216 3215 3213 3215 3216 3218 3217 3218 3220
3187 3190 3192 3194 3197 3199 3201 3203 3204 3206 3207 3208 3209 3210 3212 3213 3213 3214 3215 3216 3217 3218 3218 3219 3219 3219 3220 3220 3220 3219 3218 3217 3215 3215 3215 3215 3215 3214 3214 3215 3214 3216 3217
3188 3191 3194 3196 3198 3200 3202 3204 3205 3206 3208 3209 3209 3210 3212 3213 3214 3215 3215 3215 3216 3218 3219 3219 3219 3219 3220 3220 3220 3219 3218 3217 3216 3214 3214 3214 3214 3214 3212 3213 3214 3214 3215
3188 3191 3194 3197 3199 3200 3202 3204 3205 3207 3208 3208 3209 3210 3212 3213 3214 3215 3215 3216 3217 3218 3219 3219 3219 3219 3219 3219 3219 3218 3217 3216 3216 3215 3213 3214 3213 3212 3213 3212 3213 3214 3214
3190 3193 3195 3198 3200 3201 3203 3204 3206 3207 3208 3209 3209 3210 3211 3213 3214 3215 3216 3217 3218 3219 3219 3219 3218 3218 3217 3217 3218 3217 3216 3216 3216 3216 3215 3214 3213 3212 3213 3215 3214 3213 3214
3191 3194 3196 3198 3200 3202 3204 3205 3206 3207 3208 3209 3210 3210 3212 3213 3214 3215 3216 3217 3217 3217 3218 3218 3218 3217 3217 3216 3216 3216 3215 3216 3216 3216 3215 3217 3215 3215 3216 3216 3214 3214 3214
3191 3194 3196 3198 3200 3202 3204 3205 3206 3207 3208 3209 3210 3211 3212 3213 3214 3215 3216 3217 3217 3216 3217 3218 3218 3216 3215 3214 3214 3214 3214 3214 3214 3214 3214 3215 3214 3215 3216 3215 3214 3214 3214
3191 3193 3196 3198 3200 3201 3203 3204 3206 3207 3208 3209 3209 3210 3212 3213 3214 3215 3216 3216 3215 3216 3218 3217 3216 3215 3213 3212 3213 3214 3214 3213 3213 3214 3214 3214 3213 3213 3214 3214 3213 3213 3212
3191 3193 3196 3198 3200 3202 3203 3205 3206 3207 3208 3209 3210 3211 3212 3213 3213 3214 3216 3215 3215 3216 3215 3215 3216 3215 3214 3211 3213 3216 3216 3214 3214 3214 3215 3215 3214 3214 3215 3213 3212 3211 3211
3190 3193 3196 3197 3199 3201 3203 3204 3206 3207 3208 3209 3210 3211 3212 3213 3214 3214 3214 3214 3215 3215 3213 3217 3216 3215 3216 3212 3211 3212 3213 3212 3213 3213 3214 3213 3212 3212 3213 3212 3211 3210 3209
3188 3192 3195 3197 3199 3201 3203 3205 3205 3206 3208 3209 3210 3211 3212 3213 3215 3214 3212 3213 3213 3214 3215 3216 3215 3214 3211 3210 3212 3211 3207 3212 3211 3209 3212 3209 3208 3210 3210 3210 3209 3208 3208
3186 3188 3192 3196 3198 3199 3202 3203 3204 3206 3208 3209 3209 3210 3211 3212 3212 3213 3213 3213 3213 3213 3213 3214 3215 3214 3211 3211 3208 3209 3207 3207 3209 3208 3205 3205 3202 3206 3206 3207 3206 3207 3206
3188 3188 3190 3194 3196 3197 3199 3201 3203 3204 3205 3206 3207 3209 3210 3210 3211 3212 3212 3212 3212 3212 3212 3212 3212 3210 3210 3208 3209 3207 3207 3202 3204 3201 3184 3197 3202 3201 3203 3203 3203 3202 3204
3189 3190 3190 3192 3195 3196 3198 3199 3201 3202 3203 3204 3204 3207 3209 3210 3210 3210 3211 3211 3211 3211 3211 3210 3210 3210 3208 3208 3208 3206 3206 3203 3202 3197 3195 3197 3199 3199 3202 3203 3202 3201 3199
3189 3190 3190 3192 3195 3196 3198 3199 3202 3202 3203 3204 3205 3206 3208 3208 3208 3210 3210 3210 3210 3210 3210 3211 3209 3206 3208 3206 3207 3205 3203 3200 3199 3198 3193 3191 3190 3200 3205 3206 3204 3199 3197
3189 3190 3190 3192 3194 3196 3197 3199 3201 3202 3203 3204 3204 3205 3207 3208 3209 3209 3210 3210 3210 3210 3208 3209 3208 3207 3206 3205 3205 3202 3202 3201 3198 3197 3195 3187 3177 3200 3203 3206 3204 3200 3197
3189 3190 3191 3192 3194 3196 3197 3198 3199 3200 3202 3202 3203 3203 3204 3206 3207 3208 3208 3208 3208 3209 3208 3207 3207 3207 3205 3204 3203 3201 3200 3196 3195 3197 3197 3190 3194 3193 3167 3195 3201 3198 3197
3189 3190 3191 3192 3194 3195 3197 3198 3199 3199 3200 3201 3201 3202 3203 3204 3205 3206 3206 3206 3206 3206 3206 3206 3204 3204 3204 3203 3201 3202 3198 3195 3193 3193 3194 3191 3190 3193 3194 3190 3196 3196 3194
3189 3190 3191 3192 3193 3195 3196 3197 3198 3198 3199 3200 3200 3201 3201 3201 3201 3203 3204 3204 3203 3203 3203 3203 3203 3202 3202 3200 3199 3200 3198 3194 3191 3188 3189 3186 3185 3190 3190 3187 3189 3191 3189
3188 3189 3191 3191 3192 3194 3195 3196 3196 3197 3198 3199 3200 3200 3201 3201 3201 3201 3201 3201 3202 3201 3201 3201 3200 3200 3200 3199 3196 3196 3195 3193 3190 3188 3188 3188 3187 3187 3185 3185 3185 3187 3187
3186 3188 3189 3190 3192 3192 3193 3195 3196 3197 3197 3197 3198 3197 3198 3199 3200 3200 3200 3199 3198 3199 3199 3199 3198 3197 3196 3196 3195 3193 3193 3192 3189 3188 3188 3189 3187 3185 3183 3182 3182 3184 3186
3184 3185 3188 3189 3190 3191 3192 3193 3194 3195 3194 3194 3194 3195 3195 3195 3196 3196 3197 3198 3197 3196 3196 3195 3195 3194 3194 3192 3192 3191 3189 3188 3187 3186 3186 3187 3186 3184 3181 3181 3179 3177 3179
3180 3181 3185 3187 3188 3189 3189 3191 3192 3192 3191 3191 3191 3192 3193 3193 3193 3192 3192 3193 3193 3193 3193 3193 3191 3190 3189 3188 3187 3186 3185 3184 3185 3183 3182 3181 3180 3180 3178 3178 3176 3175 3177